Preview of NWS' New Version of Forecast
This preview is not operational and should not be used for support decisions.

Regional Weather Roundup (RWR)

Issued by National Weather Service (NWS)

                            
000
ASUS45 KBOI 211910
RWRID 

IDAHO REGIONAL WEATHER ROUNDUP
NATIONAL WEATHER SERVICE BOISE ID
100 PM MDT SAT SEP 21 2019

NOTE: "FAIR" INDICATES FEW OR NO CLOUDS BELOW 12000 FEET
WITH NO SIGNIFICANT WEATHER AND/OR OBSTRUCTIONS TO VISIBILITY

IDZ012-014-212000-
SOUTHWEST IDAHO

  
CITY           SKY/WX    TMP DP  RH WIND       PRES   REMARKS
BOISE          SUNNY     64  44  48 NW9       30.14F                  
CALDWELL       SUNNY     64  46  52 W7        30.14F                  
MOUNTAIN HOME  SUNNY     66  42  41 NW9       30.13F                  
$$

IDZ016-017-212000-
SOUTHCENTRAL IDAHO

  
CITY           SKY/WX    TMP DP  RH WIND       PRES   REMARKS
BURLEY         MOSUNNY   58  40  51 W9        30.16F                  
JEROME         SUNNY     61  42  49 SW14      30.16F                  
TWIN FALLS     MOSUNNY   61  40  45 W8        30.17F                  
$$

IDZ019>023-212000-
SOUTHEAST IDAHO

  
CITY           SKY/WX    TMP DP  RH WIND       PRES   REMARKS
IDAHO FALLS    PTSUNNY   53  43  68 SW15      30.18F                  
POCATELLO      PTSUNNY   56  41  57 SW10      30.18F                  
REXBURG        CLOUDY    51  42  71 SW10      30.17F                  
$$

IDZ006-010-011-018-031-032-212000-
CENTRAL IDAHO MOUNTAINS

  
CITY           SKY/WX    TMP DP  RH WIND       PRES   REMARKS
MCCALL         MOSUNNY   57  35  43 CALM      30.14F                  
HAILEY         PTSUNNY   54  43  66 SE10      30.16F                  
STANLEY          N/A     56  32  40 CALM      30.17F                  
SALMON         PTSUNNY   55  43  63 CALM      30.13F                  
CHALLIS        SUNNY     58  37  45 E6        30.13F                  
$$

IDZ002-004-006-007-026-212000-
NORTHERN IDAHO

  
CITY           SKY/WX    TMP DP  RH WIND       PRES   REMARKS
LEWISTON       MOSUNNY   67  51  56 CALM      30.10F                  
LOWELL           N/A     62  55  77 CALM      30.11F                  
COEUR D'ALENE  CLOUDY    59  48  67 SE7       30.11F                  
MULLAN PASS    CLOUDY    44  41  89 VRB3      30.14S                  
$$